Regional Weather Roundup
Issued by NWS Kansas City/Pleasant Hill, MO

Home | Current Version | Previous Version | Graphics & Text | Print | Product List | Glossary Off
Versions: 1 2 3 4 5 6 7 8 9 10 11 12 13 14 15 16 17 18 19 20 21 22 23 24 25 26 27 28 29 30 31 32 33 34 35 36 37 38 39 40 41 42 43 44 45 46 47 48 49 50

656
ASUS43 KEAX 161710
RWREAX

WEATHER ROUNDUP FOR EASTERN KANSAS AND NORTHWEST MISSOURI
NATIONAL WEATHER SERVICE KANSAS CITY/PLEASANT HILL MO
1100 AM CST TUE JAN 16 2018

KSZ040-057-103>105-MOZ028-029-037-043-161800-
...KANSAS CITY METROPOLITAN AREA...

CITY           SKY/WX    TMP DP  RH WIND       PRES   REMARKS
K.C. INTL      MOSUNNY    4  -5  66 NW15      30.76R WCI -14
K.C. DOWNTOWN  CLOUDY     5  -4  66 NW13      30.79R WCI -12
LEES SUMMIT    CLOUDY     3  -4  72 NW12      30.76R WCI -13
OLATHE - IXD   CLOUDY     4  -3  73 NW17      30.77R WCI -16
OLATHE - OJC   MOSUNNY    2  -4  76 NW13      30.75S WCI -15
LAWRENCE       SUNNY      6  -3  66 NW13      30.80S WCI -10

$$

MOZ001>008-011>017-020>025-030>033-038>040-044>046-053-054-161800-
...NORTHERN AND CENTRAL MISSOURI...

CITY           SKY/WX    TMP DP  RH WIND       PRES   REMARKS
ST. JOSEPH     CLOUDY     3  -3  76 NW16      30.80R WCI -16
MOSBY            N/A      5  -6  61 NW9       30.79R WCI  -9
WARRENSBURG    CLOUDY     3  -4  72 W9        30.78R WCI -11
WHITEMAN AFB   PTSUNNY    2  -7  65 NW7       30.72R WCI -10
CLINTON        CLOUDY     3  -6  66 NW9       30.78S WCI -11
SEDALIA        CLOUDY     3  -3  76 NW8       30.75R WCI -10
WARSAW         NOT AVBL
CHILLICOTHE      N/A      5  -5  63 NW12      30.76R WCI -11
KIRKSVILLE     CLOUDY     3  -3  76 NW12      30.68R WCI -13

$$

MOZ041-047>049-056>058-063>065-088>090-097-161800-
...EASTERN AND SOUTHERN MISSOURI...

CITY           SKY/WX    TMP DP  RH WIND       PRES   REMARKS
ST. LOUIS INTL MOSUNNY    5  -4  66 NW13      30.67F WCI -12
SPIRIT OF STL  SUNNY      5  -4  66 NW14      30.69F WCI -12
COLUMBIA       SUNNY      2  -7  66 NW13      30.70S WCI -15
JEFFERSON CITY MOSUNNY    2  -7  66 NW10      30.76S WCI -14
ROLLA          SUNNY      1  -6  72 W12       30.67F WCI -16
OSAGE BEACH    MOSUNNY    6  -5  60 W10       30.74F WCI  -9
SPRINGFIELD    SUNNY      2  -8  63 NW12      30.71S WCI -15
BRANSON        PTSUNNY    3  -6  66 NW8       30.72F WCI -10
JOPLIN         SUNNY      2  -6  69 NW13      30.80S WCI -15
WEST PLAINS    SUNNY      6  -5  60 NW12      30.67S WCI  -9

$$

IAZ060-094-KSZ022-034>040-054-083-096-NEZ052-066-093-161800-
...KANSAS...SOUTHEAST NEBRASKA AND IOWA...

CITY           SKY/WX    TMP DP  RH WIND       PRES   REMARKS
TOPEKA         SUNNY      7  -2  66 NW10      30.81R WCI  -8
MANHATTAN      MOSUNNY    7  -4  60 N7        30.83R WCI  -5
EMPORIA        CLOUDY     4  -3  73 NW12      30.79R WCI -12
CHANUTE          N/A      5  -4  66 NW13      30.82R WCI -12
WICHITA        MOSUNNY    8  -1  66 NW15      30.81R WCI  -9
OMAHA          FLURRIES   2  -5  72 NW13      30.78S WCI -15
LINCOLN        SUNNY      6  -3  66 N12       30.79F WCI  -9
FALLS CITY     PTSUNNY    2  -6  69 NW14G21   30.79R WCI -16
LAMONI         PTSUNNY    3  -5  69 NW9       30.69S WCI -12
DES MOINES     LGT SNOW   2  -6  69 NW12      30.71S WCI -15

$$





USA.gov is the U.S. government's official web portal to all federal, state and local government web resources and services.